Вернуться в каталог

BREEZE-M R/B

АктивенMEO
NORAD 37952·ROCKET BODY·🇷🇺 Russia

Запущен Dec 11, 2011 с Baikonur Cosmodrome

Loading…

Ближайшие Пролёты (ближайшие 24 часа)

TLE

СвежийSource: Space-Track

Эпоха: Sep 14, 2026, 10:48 UTC

1 37952U 11074C   26257.45006461 -.00000181  00000-0  00000-0 0  9998
2 37952  11.6121  49.6112 0800204 182.1256  10.3752  0.89625407 47945

Отслеживайте BREEZE-M R/B в реальном времени с AllMySat

Download on the App Store